Notices

What's New in latest Release from April 7th, 2021:

- Updated Glossary, including Speed of Maximum Gust, and Total Hourly Precipitation

- Updated national and regional climate services offices contacts and prices information

- Addition of station inventory lists for 1981-2010, 1971-2000, and 1961-1990 Normals.

If you haven't already, please take our survey and provide feedback about our website: https://eccc.sondage-survey.ca/f/LanguageSelection.aspx?s=442ca660-fcf1-47c0-95a9-59707d6fd709

Hourly Data Report for May 07, 2003

TORONTO CITY
ONTARIO

43°40'00.000" N
79°24'00.000" W
112.50 m
6158355
71508
XTO

Download Data

Hourly Data (May 2003)
Hourly Data Report for May 7, 2003
TIME
LST
Temp Definition
°C
Dew Point Definition
°C
Rel Hum Definition
%
Precip. Amount Definition
mm

Wind Dir Definition
10's deg

Wind Spd Definition
km/h
Visibility Definition
km
Stn Press Definition
kPa
Hmdx Definition


Wind Chill Definition


Weather Definition


00:00 11.5 8.7 83   LegendMM LegendMM LegendMM 99.83     LegendNANA
01:00 11.4 9.4 87   LegendMM LegendMM LegendMM 99.85     LegendNANA
02:00 11.2 8.6 84   LegendMM LegendMM LegendMM 99.84     LegendNANA
03:00 11.3 8.7 84   LegendMM LegendMM LegendMM 99.86     LegendNANA
04:00 10.7 7.6 81   LegendMM LegendMM LegendMM 99.89     LegendNANA
05:00 10.7 7.9 83   LegendMM LegendMM LegendMM 99.91     LegendNANA
06:00 10.5 7.8 83   LegendMM LegendMM LegendMM 99.98     LegendNANA
07:00 10.5 7.8 83   LegendMM LegendMM LegendMM 100.16     LegendNANA
08:00 11.7 8.5 81   LegendMM LegendMM LegendMM 100.13     LegendNANA
09:00 12.0 8.4 79   LegendMM LegendMM LegendMM 100.13     LegendNANA
10:00 12.9 8.4 74   LegendMM LegendMM LegendMM 100.08     LegendNANA
11:00 12.7 8.3 75   LegendMM LegendMM LegendMM 100.10     LegendNANA
12:00 12.3 8.3 77   LegendMM LegendMM LegendMM 100.09     LegendNANA
13:00 13.0 8.9 76   LegendMM LegendMM LegendMM 100.12     LegendNANA
14:00 12.7 8.5 76   LegendMM LegendMM LegendMM 100.09     LegendNANA
15:00 12.2 8.8 80   LegendMM LegendMM LegendMM 100.05     LegendNANA
16:00 10.6 7.9 83   LegendMM LegendMM LegendMM 100.05     LegendNANA
17:00 10.8 9.2 90   LegendMM LegendMM LegendMM 100.02     LegendNANA
18:00 10.9 9.4 90   LegendMM LegendMM LegendMM 100.02     LegendNANA
19:00 11.0 9.5 90   LegendMM LegendMM LegendMM 100.04     LegendNANA
20:00 11.3 9.7 90   LegendMM LegendMM LegendMM 100.08     LegendNANA
21:00 11.1 9.5 90   LegendMM LegendMM LegendMM 100.07     LegendNANA
22:00 10.8 9.2 90   LegendMM LegendMM LegendMM 100.08     LegendNANA
23:00                      

Notes on Data Quality.

Legend

  • E = Estimated
  • M = Missing
  • NA = Not Available*
  • [empty] = Indicates an unobserved value
Date modified: